Regional Weather Roundup
Issued by NWS Nashville, TN

Home | Current Version | Previous Version | Text Only | Print | Product List | Glossary On
Versions: 1 2 3 4 5 6 7 8 9 10 11 12 13 14 15 16 17 18 19 20 21 22 23 24 25 26 27
000
ASUS44 KOHX 250210
RWROHX
MIDDLE TENNESSEE HOURLY WEATHER ROUNDUP
NATIONAL WEATHER SERVICE NASHVILLE TN
900 PM CDT FRI MAR 24 2017

NOTE: "FAIR" INDICATES FEW OR NO CLOUDS BELOW 12,000 FEET WITH
NO SIGNIFICANT WEATHER AND/OR OBSTRUCTIONS TO VISIBILITY.

* THESE REPORTS ARE NOT UNDER NWS QUALITY CONTROL AND MAY NOT
  REPORT WEATHER SUCH AS PRECIPITATION AND FOG.


TNZ005>011-023>034-057-059-062>066-078-080-250300
...NORTHERN MIDDLE TENNESSEE...

CITY           SKY/WX    TMP DP  RH WIND       PRES   REMARKS
CLARKSVILLE    CLOUDY    70  52  52 S14G22    30.09R
CROSSVILLE     MOCLDY    61  46  57 S6        30.26F
GALLATIN       MOCLDY    68  52  56 SE10      30.18F
NASHVILLE      CLOUDY    69  52  54 SE13      30.15F
PORTLAND       PTCLDY    68  52  56 S13       30.14F
SMYRNA         MOCLDY    68  53  58 SE13      30.16F
SPARTA         CLOUDY    64  50  59 S7        30.21S
SPRINGFIELD    PTCLDY    68  54  60 S10G16    30.12S
WEST NASHVILLE CLEAR     68  52  56 SE9       30.14S
$$
TNZ056-058-060-061-075>077-079-093>097-250300
...SOUTHERN MIDDLE TENNESSEE...

CITY           SKY/WX    TMP DP  RH WIND       PRES   REMARKS
COLUMBIA       CLEAR     68  55  64 SE7       30.12R
FAYETTEVILLE   PTCLDY    66  54  63 S9G16     30.18F
MCMINNVILLE    PTCLDY    66  52  59 VRB7      30.21S
SHELBYVILLE    CLEAR     68  54  60 SE8       30.18F
TULLAHOMA      CLEAR     66  48  52 SE8       30.20F
$$


...KEY TO REMARKS...
VSB - VISIBILITY IN MILES
WCI - WIND CHILL INDEX
HX  - HEAT INDEX





USA.gov is the U.S. government's official web portal to all federal, state and local government web resources and services.